CW8490 Weather Reports


Display with metric or nautical units.
time (UTC)temp
F
wind
direction
speed
MPH
gust
MPH
rain 1hr
in
rain 24hr
in
rain mn
in
humidity
%
barometer
mb
20260901103937 72 0.0 0.0 0.00 0.00 0.00 79 1014.8
20260901102937 72 0.0 0.0 0.00 0.00 0.00 79 1014.8
20260901101917 72 0.0 0.0 0.00 0.00 0.00 79 1014.8
20260901100917 72 0.0 0.0 0.00 0.00 0.00 79 1014.7
20260901095957 72 0.0 0.0 0.00 0.00 0.00 78 1014.7
20260901094917 73 0.0 0.0 0.00 0.00 0.00 78 1014.6
20260901093916 73 0.0 0.0 0.00 0.00 0.00 78 1014.4
20260901092917 73 0.0 0.0 0.00 0.00 0.00 79 1014.3
20260901091917 72 0.0 0.0 0.00 0.00 0.00 79 1014.1
20260901090917 72 0.0 0.0 0.00 0.00 0.00 79 1014.1
20260901090056 73 0.0 0.0 0.00 0.00 0.00 78 1014.0
20260901085819 73 0.0 0.0 0.00 0.00 0.00 78 1014.0
20260901084817 73 0.0 0.0 0.00 0.00 0.00 77 1013.9
20260901083817 73 0.0 0.0 0.00 0.00 0.00 78 1014.0
20260901082817 72 0.0 0.0 0.00 0.00 0.00 79 1014.1
20260901081817 71 0.0 0.0 0.00 0.00 0.00 81 1014.0
20260901080817 70 0.0 0.0 0.00 0.00 0.00 82 1013.8
20260901075857 71 0.0 0.0 0.00 0.00 0.00 83 1013.9
20260901074818 71 90 1.0 1.0 0.00 0.00 0.00 83 1013.9
20260901073817 70 0.0 0.0 0.00 0.00 0.00 86 1013.9
20260901072817 70 0.0 0.0 0.00 0.00 0.00 85 1013.9
20260901071817 70 0.0 0.0 0.00 0.00 0.00 85 1013.9
20260901070817 70 0.0 0.0 0.00 0.00 0.00 84 1013.9
20260901065817 71 0.0 0.0 0.00 0.00 0.00 84 1013.9
20260901064818 71 0.0 0.0 0.00 0.00 0.00 83
20260901063817 71 0.0 0.0 0.00 0.00 0.00 82
20260901062837 71 0.0 0.0 0.00 0.00 0.00 81
20260901061817 72 0.0 0.0 0.00 0.00 0.00 82 1014.0
20260901060837 72 0.0 0.0 0.00 0.00 0.00 80 1013.9
20260901055817 72 0.0 0.0 0.00 0.00 0.00 79 1013.9
20260901054817 73 0.0 0.0 0.00 0.00 0.00 79 1013.8
20260901053817 73 0.0 0.0 0.00 0.00 0.00 79 1013.9
20260901052852 74 0.0 0.0 0.00 0.00 0.00 78 1013.8
20260901052317 74 0.0 0.0 0.00 0.00 0.00 77 1013.7
20260901051317 75 0.0 0.0 0.00 0.00 0.00 74 1013.7
20260901050337 76 0.0 0.0 0.00 0.00 0.00 72 1013.8
20260901045316 78 0.0 0.0 0.00 0.00 0.00 68 1013.7
20260901044315 78 0.0 0.0 0.00 0.00 0.00 66 1013.7
20260901043316 79 0.0 0.0 0.00 0.00 0.00 66 1013.6
20260901042316 79 0.0 0.0 0.00 0.00 0.00 65 1013.7
20260901041316 79 0.0 0.0 0.00 0.00 0.00 65 1013.6
20260901040336 80 0.0 0.0 0.00 0.00 0.00 64 1013.6
20260901035316 81 0.0 0.0 0.00 0.00 0.00 63 1013.5
20260901034316 81 0.0 0.0 0.00 0.00 0.00 61 1013.5
20260901033417 83 0.0 0.0 0.00 0.00 0.00 59 1013.5
20260901033116 83 0.0 0.0 0.00 0.00 0.00 59 1013.5
20260901032116 84 180 1.0 2.0 0.00 0.00 0.00 58 1013.4
20260901031116 85 180 2.0 3.0 0.00 0.00 0.00 56 1013.3
20260901030116 86 180 3.0 5.0 0.00 0.00 0.00 55 1013.2
20260901025115 86 158 2.0 3.0 0.00 0.00 0.00 55 1013.3
20260901024116 86 180 3.0 5.0 0.00 0.00 0.00 55 1013.2
20260901023116 86 135 2.0 4.0 0.00 0.00 0.00 56 1013.1
20260901022116 86 135 1.0 2.0 0.00 0.00 0.00 56 1013.1
20260901021116 86 158 3.0 6.0 0.00 0.00 0.00 56 1012.8
20260901020115 86 0.0 0.0 0.00 0.00 0.00 57 1012.7
20260901015116 86 135 1.0 3.0 0.00 0.00 0.00 58 1012.7
20260901014116 86 135 1.0 2.0 0.00 0.00 0.00 60 1012.5
20260901013156 86 0.0 0.0 0.00 0.00 0.00 60 1012.5
20260901012116 86 0.0 0.0 0.00 0.00 0.00 61 1012.3
20260901011116 87 0.0 0.0 0.00 0.00 0.00 59 1012.2
20260901010116 88 0.0 0.0 0.00 0.00 0.00 58 1012.2
20260901005116 89 0.0 1.0 0.00 0.00 0.00 58 1012.1
20260901004116 90 0.0 0.0 0.00 0.00 0.00 56 1012.1
20260901003116 91 0.0 0.0 0.00 0.00 0.00 54 1012.1
20260901002156 93 0.0 0.0 0.00 0.00 0.00 54 1012.2
20260901001116 93 158 1.0 1.0 0.00 0.00 0.00 52 1012.1
20260901000116 94 0.0 0.0 0.00 0.00 0.00 53 1012.2
20260831235153 97 0.0 0.0 0.00 0.00 0.00 48 1012.2
20260831235005 97 0.0 0.0 0.00 0.00 0.00 48 1012.2
20260831234816 97 0.0 0.0 0.00 0.00 0.00 48 1012.2
20260831233816 97 203 1.0 1.0 0.00 0.00 0.00 46 1012.2
20260831232816 98 203 2.0 2.0 0.00 0.00 0.00 46 1012.2
20260831231936 98 180 3.0 4.0 0.00 0.00 0.00 44 1012.2
20260831230816 99 180 1.0 2.0 0.00 0.00 0.00 44 1012.2
20260831225816 99 203 2.0 4.0 0.00 0.00 0.00 43 1012.2
20260831224856 100 203 5.0 7.0 0.00 0.00 0.00 41 1012.2
20260831223816 100 225 1.0 4.0 0.00 0.00 0.00 43 1012.3
20260831222816 101 180 4.0 5.0 0.00 0.00 0.00 41 1012.2
20260831221817 101 203 2.0 4.0 0.00 0.00 0.00 43 1012.5
20260831220816 100 203 3.0 5.0 0.00 0.00 0.00 42 1012.4
20260831215816 100 225 4.0 7.0 0.00 0.00 0.00 41 1012.4
20260831214816 100 203 4.0 6.0 0.00 0.00 0.00 40 1012.5
20260831213816 100 203 3.0 5.0 0.00 0.00 0.00 42 1012.4
20260831212904 100 0.0 0.0 0.00 0.00 0.00 41 1012.4
20260831212715 100 0.0 0.0 0.00 0.00 0.00 41 1012.5
20260831212316 100 180 3.0 5.0 0.00 0.00 0.00 41 1012.5
20260831211316 100 180 3.0 5.0 0.00 0.00 0.00 41 1012.5
20260831210316 100 203 7.0 10.0 0.00 0.00 0.00 42 1012.5
20260831205336 100 248 2.0 6.0 0.00 0.00 0.00 42 1012.5
20260831204316 100 293 5.0 10.0 0.00 0.00 0.00 42 1012.6
20260831203336 100 203 7.0 10.0 0.00 0.00 0.00 41 1012.7
20260831202316 100 203 3.0 7.0 0.00 0.00 0.00 43 1012.7
20260831201316 99 225 5.0 9.0 0.00 0.00 0.00 42 1012.7
20260831200316 99 338 2.0 5.0 0.00 0.00 0.00 43 1012.6
20260831195917 100 270 4.0 6.0 0.00 0.00 0.00 44 1012.6
20260831195740 100 225 2.0 2.0 0.00 0.00 0.00 45 1012.6
20260831195658 99 0.0 0.0 0.00 0.00 0.00 42 1012.6
20260831195534 99 0.0 0.0 0.00 0.00 0.00 42 1012.6
20260831195419 99 0.0 0.0 0.00 0.00 0.00 42 1012.6
20260831195255 99 0.0 0.0 0.00 0.00 0.00 42 1012.6
20260831195120 99 203 6.0 8.0 0.00 0.00 0.00 42 1012.7
20260831194223 99 158 4.0 7.0 0.00 0.00 0.00 44 1012.8
20260831193918 99 180 6.0 9.0 0.00 0.00 0.00 44 1012.8
20260831193902 99 203 3.0 5.0 0.00 0.00 0.00 46 1012.9
20260831190817 98 270 3.0 6.0 0.00 0.00 0.00 44 1013.0
20260831185838 99 270 4.0 6.0 0.00 0.00 0.00 43 1013.2
20260831185237 99 225 7.0 11.0 0.00 0.00 0.00 43 1013.2
20260831184524 98 203 8.0 12.0 0.00 0.00 0.00 44 1013.3
20260831183710 99 0.0 0.0 0.00 0.00 0.00
20260831183608 99 0.0 0.0 0.00 0.00 0.00
20260831183339 99 248 2.0 2.0 0.00 0.00 0.00
20260831183219 0 0.0 0.0 0.00 0.00 0.00
20260831183021 0 0.0 0.0 0.00 0.00 0.00